Vorticity
3 1 10 2 8 3 8 3 3 18 -6 27 17 6 6 -1 -1 0 7 5 4 11 -14 9 0 1 7 3 8 11 17 11
11 2 9 7 5 3 7 8 3 -15 12 16 9 1 -1 -0 7 4 12 18 -7 -2 1 3 10 7 9 10 15 9 7 5
18 8 6 12 8 5 3 0 24 8 14 5 3 3 9 9 12 7 2 9 6 5 5 -1 1 5 17 17 10 8 6 6
12 10 7 13 12 17 23 11 5 4 9 4 8 9 10 9 11 11 5 3 6 4 3 7 4 8 15 12 10 7 7 13
4 6 8 15 16 6 2 5 1 9 14 3 7 4 2 -4 -5 -5 5 7 5 1 6 4 22 12 15 11 16 13 11 12
14 7 15 16 13 13 10 5 7 -2 1 1 2 -2 3 8 3 8 9 1 5 26 21 0 28 -15 11 6 7 7 5 5
-6 5 -8 10 -1 10 21 2 3 9 8 4 5 2 0 3 4 8 11 5 8 31 -2 11 -23 29 13 2 9 15 18 18
6 9 11 -4 0 5 -3 3 1 5 4 -0 3 8 6 5 11 18 17 -3 0 5 15 19 16 2 5 6 11 17 8 10
-2 3 6 9 3 3 5 -6 9 7 1 -1 10 12 7 12 17 6 6 19 10 13 27 10 27 1 5 4 10 3 13 11
4 10 3 0 3 -4 4 3 8 -1 -3 3 8 7 8 8 8 7 8 17 15 17 4 30 22 -7 -6 22 15 2 6 18
2 3 2 3 0 3 7 -4 0 9 17 12 8 15 15 11 12 14 12 10 9 8 -2 21 -7 14 33 18 11 13 19 20
7 5 0 9 6 -1 -6 11 15 11 6 9 17 15 14 11 8 8 10 11 13 -1 27 22 7 18 13 2 7 20 19 7
14 5 7 -3 0 -5 -2 12 8 9 16 14 10 9 6 6 12 13 11 16 11 16 3 -5 16 24 4 6 11 14 9 9
9 3 -12 8 -2 5 10 10 13 12 7 9 9 7 11 13 13 14 15 19 16 17 9 25 23 -1 9 8 13 14 11 10
5 4 4 -3 -7 10 12 12 5 7 12 12 9 9 11 9 13 13 22 15 14 14 30 6 8 3 7 11 9 9 9 4
4 2 -4 1 7 13 12 6 8 12 12 8 7 7 9 11 13 16 15 15 18 21 15 22 1 0 6 11 9 11 5 4
-4 -1 9 4 10 11 6 8 12 9 9 7 7 9 11 12 13 18 13 15 18 28 -0 7 4 8 5 10 11 8 5 9
3 5 11 8 10 6 10 11 6 6 6 6 9 10 11 14 18 15 17 15 30 -1 19 14 8 1 5 12 10 8 10 8
6 11 9 14 7 10 8 4 4 6 7 9 10 11 14 17 18 16 14 17 18 9 8 9 3 -2 10 13 9 8 7 10
Height
3165 3168 3169 3170 3169 3169 3167 3165 3163 3161 3163 3162 3161 3159 3158 3156 3155 3153 3150 3147 3144 3140 3136 3132 3128 3124 3119 3115 3110 3107 3103 3097
3163 3165 3168 3169 3168 3168 3165 3162 3160 3161 3161 3158 3157 3156 3154 3153 3150 3147 3145 3142 3136 3133 3128 3124 3119 3114 3109 3104 3099 3095 3093 3087
3161 3164 3167 3167 3166 3164 3164 3161 3159 3158 3157 3156 3154 3152 3150 3147 3145 3143 3139 3135 3130 3126 3121 3116 3110 3104 3099 3093 3088 3085 3082 3077
3164 3164 3164 3165 3164 3162 3160 3158 3157 3155 3154 3153 3151 3148 3146 3143 3139 3136 3132 3127 3121 3117 3112 3106 3099 3093 3087 3083 3079 3075 3071 3069
3162 3161 3160 3159 3159 3158 3157 3157 3155 3153 3151 3149 3147 3145 3142 3139 3135 3130 3124 3117 3111 3106 3100 3093 3087 3081 3077 3074 3068 3063 3059 3055
3159 3160 3159 3158 3158 3157 3155 3153 3151 3149 3148 3145 3142 3138 3135 3130 3124 3118 3112 3105 3101 3094 3088 3083 3077 3072 3067 3063 3059 3054 3049 3044
3158 3158 3157 3156 3155 3153 3152 3151 3149 3146 3142 3138 3134 3129 3123 3118 3112 3107 3100 3094 3090 3085 3079 3074 3068 3061 3057 3052 3048 3042 3038 3033
3155 3155 3154 3153 3151 3150 3148 3146 3143 3139 3135 3131 3127 3121 3115 3109 3103 3096 3090 3085 3079 3074 3068 3061 3055 3049 3043 3038 3034 3030 3026 3023
3153 3153 3151 3150 3148 3145 3143 3140 3135 3131 3127 3122 3117 3111 3105 3099 3093 3085 3079 3074 3069 3063 3057 3051 3046 3039 3034 3029 3024 3019 3014 3009
3148 3147 3146 3144 3142 3140 3139 3135 3130 3126 3121 3115 3109 3102 3096 3090 3084 3078 3071 3065 3058 3052 3046 3041 3034 3027 3022 3018 3014 3009 3004 2998
3143 3141 3140 3138 3138 3136 3133 3130 3126 3121 3114 3106 3099 3093 3085 3078 3072 3066 3059 3052 3046 3040 3036 3033 3027 3021 3015 3010 3005 2999 2995 2990
3139 3137 3136 3135 3132 3130 3127 3122 3116 3109 3103 3096 3090 3083 3076 3069 3062 3055 3049 3043 3038 3033 3029 3024 3018 3012 3006 3004 2998 2993 2988 2982
3135 3133 3132 3128 3127 3124 3120 3113 3107 3101 3094 3087 3080 3073 3066 3061 3055 3048 3042 3035 3029 3026 3019 3014 3010 3005 3001 2996 2990 2985 2981 2975
3131 3129 3126 3123 3119 3116 3111 3105 3098 3092 3086 3079 3072 3065 3059 3052 3046 3039 3032 3026 3020 3016 3011 3007 3002 2998 2994 2988 2983 2979 2972 2967
3126 3123 3120 3116 3112 3108 3101 3095 3090 3084 3077 3070 3063 3056 3048 3041 3035 3028 3022 3016 3011 3006 3003 2999 2995 2991 2987 2981 2975 2970 2965 2959
3121 3117 3113 3109 3105 3099 3093 3087 3082 3075 3069 3061 3054 3046 3039 3033 3027 3020 3014 3008 3002 2998 2996 2992 2988 2985 2980 2974 2968 2963 2957 2952
3114 3111 3107 3102 3096 3090 3085 3080 3073 3067 3060 3053 3046 3039 3032 3024 3018 3011 3005 3000 2995 2992 2989 2986 2982 2978 2973 2967 2961 2956 2951 2944
3107 3103 3097 3092 3088 3083 3077 3071 3065 3059 3052 3045 3037 3029 3022 3016 3010 3004 2998 2993 2988 2986 2983 2980 2976 2972 2966 2961 2955 2950 2943 2935
3098 3093 3090 3085 3080 3074 3069 3063 3057 3050 3043 3035 3028 3021 3015 3008 3002 2996 2990 2986 2984 2980 2977 2973 2969 2965 2959 2954 2948 2942 2936 2928